TimeCST,TemperatureF,Dew PointF,Humidity,Sea Level PressureIn,VisibilityMPH,Wind Direction,Wind SpeedMPH,Gust SpeedMPH,PrecipitationIn,Events,Conditions,WindDirDegrees,DateUTC
12:15 AM,20.8,15.8,81,30.37,10.0,SSE,8.1,-,N/A,,Clear,160,2013-01-18 06:15:00
12:35 AM,21.6,16.3,80,30.37,10.0,SSE,9.2,-,N/A,,Clear,160,2013-01-18 06:35:00
12:55 AM,22.5,16.9,79,30.36,10.0,SSE,8.1,-,N/A,,Clear,150,2013-01-18 06:55:00
1:15 AM,21.6,16.7,82,30.36,10.0,SSE,9.2,-,N/A,,Clear,160,2013-01-18 07:15:00
1:35 AM,22.5,17.4,81,30.35,10.0,South,10.4,-,N/A,,Clear,170,2013-01-18 07:35:00
1:55 AM,21.4,16.7,82,30.35,10.0,South,8.1,-,N/A,,Clear,170,2013-01-18 07:55:00
2:15 AM,21.2,17.1,84,30.34,10.0,South,10.4,-,N/A,,Clear,180,2013-01-18 08:15:00
2:35 AM,24.1,19.2,82,30.33,10.0,South,11.5,-,N/A,,Clear,190,2013-01-18 08:35:00
2:55 AM,25.2,19.8,80,30.32,10.0,South,10.4,-,N/A,,Clear,190,2013-01-18 08:55:00
3:15 AM,24.8,19.9,82,30.32,10.0,South,9.2,-,N/A,,Clear,190,2013-01-18 09:15:00
3:35 AM,24.8,20.1,82,30.31,10.0,South,9.2,-,N/A,,Clear,180,2013-01-18 09:35:00
3:55 AM,29.3,24.4,82,30.30,10.0,SSW,12.7,-,N/A,,Clear,200,2013-01-18 09:55:00
4:15 AM,30.9,24.6,77,30.29,10.0,SSW,15.0,-,N/A,,Clear,200,2013-01-18 10:15:00
4:35 AM,31.8,25.0,76,30.27,10.0,SSW,16.1,20.7,N/A,,Clear,200,2013-01-18 10:35:00
4:55 AM,32.0,25.3,76,30.26,10.0,SSW,17.3,20.7,N/A,,Clear,200,2013-01-18 10:55:00
5:15 AM,32.0,25.5,77,30.25,10.0,South,17.3,-,N/A,,Clear,190,2013-01-18 11:15:00
5:35 AM,32.0,25.5,77,30.24,10.0,SSW,15.0,-,N/A,,Clear,200,2013-01-18 11:35:00
5:55 AM,32.0,25.5,77,30.23,10.0,SSW,13.8,-,N/A,,Clear,200,2013-01-18 11:55:00
6:15 AM,32.0,25.7,78,30.22,10.0,SSW,17.3,-,N/A,,Clear,200,2013-01-18 12:15:00
6:35 AM,32.0,25.7,78,30.21,10.0,SSW,16.1,-,N/A,,Clear,200,2013-01-18 12:35:00
6:55 AM,32.0,25.7,78,30.20,10.0,SSW,16.1,-,N/A,,Clear,200,2013-01-18 12:55:00
7:15 AM,32.0,25.9,78,30.20,10.0,SSW,15.0,-,N/A,,Clear,200,2013-01-18 13:15:00
7:35 AM,33.3,26.8,77,30.18,10.0,SSW,16.1,-,N/A,,Clear,200,2013-01-18 13:35:00
7:55 AM,34.0,27.3,77,30.18,10.0,SSW,16.1,-,N/A,,Clear,200,2013-01-18 13:55:00
8:15 AM,36.3,28.0,72,30.18,10.0,SSW,24.2,31.1,N/A,,Clear,210,2013-01-18 14:15:00
8:35 AM,37.6,28.4,69,30.17,10.0,SSW,20.7,29.9,N/A,,Clear,200,2013-01-18 14:35:00
8:55 AM,39.4,28.8,66,30.17,10.0,SSW,21.9,26.5,N/A,,Clear,210,2013-01-18 14:55:00
9:15 AM,39.9,28.4,63,30.17,10.0,SSW,23.0,29.9,N/A,,Clear,200,2013-01-18 15:15:00
9:55 AM,42.4,28.9,59,30.14,10.0,SSW,27.6,33.4,N/A,,Clear,210,2013-01-18 15:55:00
10:15 AM,45.1,29.1,54,30.13,10.0,SSW,23.0,28.8,N/A,,Clear,210,2013-01-18 16:15:00
10:35 AM,46.6,29.1,51,30.12,10.0,SW,20.7,34.5,N/A,,Clear,220,2013-01-18 16:35:00
10:55 AM,46.6,28.6,50,30.10,10.0,SW,24.2,31.1,N/A,,Clear,220,2013-01-18 16:55:00
11:15 AM,48.4,28.9,47,30.08,10.0,SSW,24.2,33.4,N/A,,Clear,210,2013-01-18 17:15:00
11:35 AM,49.6,28.9,45,30.06,10.0,SSW,31.1,36.8,N/A,,Clear,210,2013-01-18 17:35:00
11:55 AM,50.7,28.8,43,30.03,10.0,SSW,25.3,32.2,N/A,,Clear,210,2013-01-18 17:55:00
12:15 PM,51.6,28.4,41,30.00,10.0,SW,28.8,36.8,N/A,,Clear,220,2013-01-18 18:15:00
12:35 PM,52.9,28.2,39,29.98,10.0,SW,33.4,43.7,N/A,,Clear,220,2013-01-18 18:35:00
12:55 PM,53.1,28.4,39,29.97,10.0,SW,31.1,38.0,N/A,,Clear,220,2013-01-18 18:55:00
1:15 PM,53.6,28.8,39,29.96,10.0,SW,27.6,36.8,N/A,,Clear,220,2013-01-18 19:15:00
1:35 PM,54.7,29.5,38,29.95,10.0,SW,27.6,36.8,N/A,,Clear,230,2013-01-18 19:35:00
1:55 PM,54.7,29.1,38,29.95,10.0,SW,32.2,39.1,N/A,,Clear,230,2013-01-18 19:55:00
2:15 PM,55.8,29.3,36,29.93,10.0,SW,29.9,38.0,N/A,,Clear,230,2013-01-18 20:15:00
2:35 PM,55.9,29.1,36,29.92,10.0,SW,31.1,38.0,N/A,,Clear,220,2013-01-18 20:35:00
2:55 PM,56.3,29.3,36,29.91,10.0,SW,28.8,34.5,N/A,,Clear,220,2013-01-18 20:55:00
3:15 PM,56.5,29.3,35,29.91,10.0,SW,28.8,39.1,N/A,,Clear,220,2013-01-18 21:15:00
3:35 PM,56.7,29.3,35,29.92,10.0,SW,24.2,29.9,N/A,,Clear,230,2013-01-18 21:35:00
3:55 PM,56.7,28.9,35,29.92,10.0,WSW,26.5,32.2,N/A,,Clear,240,2013-01-18 21:55:00
4:15 PM,55.8,29.3,36,29.92,10.0,WSW,18.4,33.4,N/A,,Clear,240,2013-01-18 22:15:00
4:35 PM,54.3,29.8,39,29.92,10.0,SW,20.7,31.1,N/A,,Clear,230,2013-01-18 22:35:00
4:55 PM,53.2,30.0,41,29.92,10.0,SW,18.4,-,N/A,,Clear,230,2013-01-18 22:55:00
5:15 PM,51.3,30.2,44,29.93,10.0,SW,16.1,-,N/A,,Clear,230,2013-01-18 23:15:00
5:35 PM,50.0,30.2,47,29.92,10.0,SW,15.0,-,N/A,,Clear,220,2013-01-18 23:35:00
5:55 PM,49.1,30.2,48,29.93,10.0,SW,13.8,-,N/A,,Clear,220,2013-01-18 23:55:00
6:15 PM,48.4,30.2,49,29.93,10.0,SW,13.8,19.6,N/A,,Clear,220,2013-01-19 00:15:00
6:35 PM,48.2,30.6,51,29.94,10.0,SW,13.8,-,N/A,,Clear,220,2013-01-19 00:35:00
6:55 PM,47.1,30.7,53,29.94,10.0,SW,15.0,-,N/A,,Clear,220,2013-01-19 00:55:00
7:15 PM,46.8,30.6,53,29.94,10.0,SW,13.8,-,N/A,,Clear,230,2013-01-19 01:15:00
7:35 PM,46.0,30.2,54,29.94,10.0,SW,13.8,-,N/A,,Clear,230,2013-01-19 01:35:00
7:55 PM,45.5,30.6,56,29.94,10.0,SW,16.1,-,N/A,,Clear,230,2013-01-19 01:55:00
8:15 PM,45.5,30.7,56,29.93,10.0,SW,17.3,-,N/A,,Clear,220,2013-01-19 02:15:00
8:35 PM,44.8,30.9,58,29.93,10.0,SW,17.3,-,N/A,,Clear,220,2013-01-19 02:35:00
8:55 PM,45.0,30.9,58,29.93,10.0,SW,16.1,-,N/A,,Clear,230,2013-01-19 02:55:00
9:35 PM,42.8,30.7,62,29.93,10.0,SW,12.7,-,N/A,,Clear,230,2013-01-19 03:35:00
9:55 PM,42.3,30.7,64,29.92,10.0,SW,15.0,-,N/A,,Clear,230,2013-01-19 03:55:00
10:15 PM,42.8,30.9,63,29.92,10.0,SW,13.8,-,N/A,,Clear,230,2013-01-19 04:15:00
10:35 PM,42.1,30.7,64,29.92,10.0,SW,12.7,-,N/A,,Clear,230,2013-01-19 04:35:00
10:55 PM,41.4,30.7,66,29.92,10.0,SW,12.7,-,N/A,,Clear,230,2013-01-19 04:55:00
11:15 PM,41.7,30.7,65,29.92,10.0,SW,11.5,-,N/A,,Clear,230,2013-01-19 05:15:00
11:35 PM,41.4,30.7,66,29.92,10.0,SW,12.7,-,N/A,,Clear,230,2013-01-19 05:35:00
11:55 PM,41.5,30.7,65,29.91,10.0,SW,13.8,-,N/A,,Clear,230,2013-01-19 05:55:00